Wetterdaten Frühling 2021

Datum T max T min Regen
01.03.2021 15 °C -2.4 °C 0 mm
02.03.2021 14.9 °C -0.7 °C 0 mm
03.03.2021 12.6 °C 0.8 °C 0 mm
04.03.2021 15.3 °C 4 °C 0.6 mm
05.03.2021 7.1 °C -0.8 °C 0.8 mm
06.03.2021 7.8 °C -3.8 °C 0 mm
07.03.2021 8.7 °C -3.7 °C 0 mm
08.03.2021 8.1 °C -4.4 °C 0 mm
09.03.2021 7.7 °C -3.3 °C 0 mm
10.03.2021 10.3 °C 3.9 °C 0 mm
11.03.2021 14.4 °C 6.2 °C 2.2 mm
12.03.2021 11.3 °C 4.4 °C 1.2 mm
13.03.2021 11.1 °C 3.6 °C 3.2 mm
14.03.2021 6.6 °C 2.9 °C 3.4 mm
15.03.2021 8.5 °C 3.1 °C 5.2 mm
16.03.2021 7.7 °C 2.8 °C 1.6 mm
17.03.2021 6.2 °C 0.5 °C 2.2 mm
18.03.2021 6.8 °C 0.2 °C 0.4 mm
19.03.2021 4.7 °C -1.1 °C 1.2 mm
20.03.2021 4.5 °C -1.6 °C 0 mm
21.03.2021 6.6 °C 2 °C 0 mm
22.03.2021 6.1 °C 3.3 °C 0 mm
23.03.2021 8.9 °C 1.9 °C 0 mm
24.03.2021 14.8 °C -0.5 °C 0 mm
25.03.2021 17.4 °C 1.1 °C 0 mm
26.03.2021 18.2 °C 4.7 °C 0 mm
27.03.2021 12.3 °C 5.4 °C 1 mm
28.03.2021 16.6 °C 5.3 °C 0 mm
29.03.2021 21.2 °C 4.8 °C 0 mm
30.03.2021 24.1 °C 3.5 °C 0 mm
31.03.2021 24.1 °C 5.3 °C 0 mm
01.04.2021 24 °C 7 °C 0 mm
02.04.2021 15.1 °C 5.9 °C 0 mm
03.04.2021 11.3 °C 2.7 °C 0 mm
04.04.2021 13.4 °C -0.6 °C 0 mm
05.04.2021 11.8 °C -0.1 °C 2.6 mm
06.04.2021 5.3 °C -1.7 °C 0.4 mm
07.04.2021 4.6 °C -1.1 °C 0.2 mm
08.04.2021 8.9 °C 1.7 °C 0 mm
09.04.2021 16.6 °C -0.8 °C 0 mm
10.04.2021 17 °C 10.4 °C 0 mm
11.04.2021 19.1 °C 5.2 °C 3.4 mm
12.04.2021 8.8 °C 2.1 °C 4.4 mm
13.04.2021 9.1 °C -1.3 °C 0 mm
14.04.2021 7.3 °C -2.4 °C 0 mm
15.04.2021 9.2 °C -2.9 °C 0.2 mm
16.04.2021 6.9 °C -1.9 °C 0 mm
17.04.2021 11.4 °C 2.4 °C 0 mm
18.04.2021 11.1 °C 4 °C 0 mm
19.04.2021 9.9 °C 4.5 °C 0.8 mm
20.04.2021 16.2 °C 2 °C 0 mm
21.04.2021 19.3 °C 2.9 °C 0 mm
22.04.2021 15.4 °C 6.4 °C 0 mm
23.04.2021 16.6 °C 0.5 °C 0 mm
24.04.2021 19.1 °C 1.6 °C 0 mm
25.04.2021 16.1 °C 3.9 °C 0 mm
26.04.2021 16.8 °C 2.4 °C 0 mm
27.04.2021 17.8 °C 2.5 °C 0 mm
28.04.2021 21.3 °C 3.7 °C 0.2 mm
29.04.2021 15.9 °C 8.7 °C 2.6 mm
30.04.2021 8.7 °C 5.5 °C 3.8 mm
01.05.2021 10.2 °C 4.7 °C 4 mm
02.05.2021 12.3 °C 5.8 °C 4.6 mm
03.05.2021 14.6 °C 2.7 °C 0 mm
04.05.2021 17.2 °C 6.3 °C 2.8 mm
05.05.2021 11.6 °C 4.1 °C 6.6 mm
06.05.2021 9.8 °C 6.1 °C 7.6 mm
07.05.2021 12.7 °C 4.2 °C 3.2 mm
08.05.2021 19.9 °C 2.3 °C 0 mm
09.05.2021 29.6 °C 7.7 °C 0 mm
10.05.2021 20.8 °C 12.1 °C 0 mm
11.05.2021 16.7 °C 11.4 °C 10 mm
12.05.2021 14.4 °C 10 °C 2 mm
13.05.2021 17.6 °C 9.5 °C 0 mm
14.05.2021 18.3 °C 7.4 °C 0 mm
 Hinweis zur Datenqualität
∅ Temperatur

7.8 °C

Abweichung vom Mittel

-2.3 °C

Niederschlag

82.4 mm

Abweichung vom Mittel

47 %

29.6 °C

Lufttemperatur
09.05.2021

1034 hPa

Luftdruck
29.03.2021

48.2 km/h

Windböen
13.03.2021

82.4 mm

Niederschlag
 

-4.4 °C

Lufttemperatur
08.03.2021

-4.4 °C

Bodentemperatur 5cm
08.03.2021

1001 hPa

Luftdruck
28.04.2021
 Hinweis zur Datenqualität